Powrót do katalogu

FENGYUN 1C DEB

AktywnyPO
NORAD 43358·DEBRIS·🇨🇳 China

Wystrzelony May 10, 1999 z Taiyuan Satellite Launch Center

Loading…

Następne Przeloty (najbliższe 24 godziny)

TLE

ŚwieżeSource: Space-Track

Epoka: Sep 14, 2026, 04:59 UTC

1 43358U 99025EYP 26257.20790229  .00001228  00000-0  15532-2 0  9992
2 43358  98.6929 344.0250 0363058 225.8267 131.2496 13.41018609574222

Śledź FENGYUN 1C DEB w czasie rzeczywistym z AllMySat

Download on the App Store